Satellite-Ground Cal/Val Site Overpasses Predictions

Prediction of Satellite NPP Overpassing Cal/Val Site: Antarctic Dome C

Ground Cal/Val Site Location: Latitude: -75.10, Longitude: 123.35; Satellite-Ground Site NADIR distance within 100 km.

Table of predicted overpasses for the next 14.0 days since TLE Epoch: 12/17/2022
Interval Starting Time Ending Time Minimum Distance Time Minimum Distance (km)
1 12/18/2022 15:02:12 12/18/2022 15:02:35 12/18/2022 15:02:24 59.61
2 12/19/2022 14:43:22 12/19/2022 14:43:48 12/19/2022 14:43:35 49.40
3 12/20/2022 07:45:04 12/20/2022 07:45:26 12/20/2022 07:45:15 67.53
4 12/21/2022 07:26:13 12/21/2022 07:26:40 12/21/2022 07:26:26 40.42
5 12/23/2022 15:08:43 12/23/2022 15:08:49 12/23/2022 15:08:46 97.67
6 12/24/2022 14:49:43 12/24/2022 14:50:13 12/24/2022 14:49:58 13.43
7 12/26/2022 07:32:35 12/26/2022 07:33:04 12/26/2022 07:32:50 4.44
8 12/29/2022 14:56:06 12/29/2022 14:56:34 12/29/2022 14:56:20 23.27
